星链-2237 (STARLINK-2237 )

导读 | 星芒AI

STARLINK-2237 是 SpaceX Starlink 项目中的一颗低轨通信卫星,属于第二代星链卫星群。该卫星于2023年发射,旨在为全球用户提供高速、低延迟的互联网服务。它运行在约550公里高度的近地轨道,采用先进推进系统和激光通信技术,以提升网络效率和覆盖范围。作为 Starlink 计划的重要组成部分,STARLINK-2237 有助于扩大卫星互联网的可用性,特别是在偏远和网络基础设施薄弱的地区。

基本信息
目录编号:
48583
目录名称:
STARLINK-2237
国际标识:
2021-041AG
轨道中心:
EARTH
卫星名称:
星链-2237
卫星全名:
星链-2237 (STARLINK-2237 )
卫星状态:
在轨 (已飞行1677 天)
发射日期:
2021-05-15 UTC
国别 :
美国 (US)
星等 :
--
轨道信息
数据来源 国际轨道数据 AOE轨道数据
星历时间 2025-12-16T11:58:14+0800
20小时前
查看轨道信息
2025-12-15T15:00:00+0800
1天前
查看轨道信息
半长轴 6925.355km 6925.306km
偏心率 0.000132 0.000134
轨道倾角 53.053° 53.053°
近地点辐角 90.971° 80.111°
升交点赤经 156.570° 160.493°
平近点角 269.143° 218.923°
近地点 546.305km 546.243km
远地点 548.135km 548.099km
周期 95.592分钟 95.591分钟
每日圈数 15.063981 15.06414
详细信息
固有亮度:
5
最大亮度:
2.5
卫星平台:
Starlink V1.0
覆盖范围:
全球
运营商:
太空探索技术公司
运营商所在国:
美国
制造商(研发单位):
太空探索技术公司
制造商所在国:
美国
使用方式:
暂无
卫星简介
星链(Starlink)计划是由太空探索技术公司(SpaceX)提出的一个巨型低轨卫星互联网星座项目,计划在2019年至2024年间在太空搭建由约1.2万颗卫星组成的“星链”网络,其中1584颗将部署在地球上空550千米处的近地轨道,并从2020年开始工作。该卫星仍在工作。
2D轨道图
3D轨道图
轨道高度分析图
轨道倾角分析图
轨道综合分析图
查看轨道综合分析图